Meteo Giornale » Osservazioni meteo Bangladesh » Dhaka
ore: 04:00 - Osservazioni Meteo Dhaka
Lat. 23° 51' N Lon. 90° 24' E Alt. 10 metri s.l.m.
28 °C
Foschia
Temp. 24 Ore
27 °C
32 °C
Est
14.8 Km/h
Dew point 26 °C
Umidità 88 %
Visibilità 4 Km
Il sole sorge alle ore 05:40
Il sole tramonta alle ore 18:16
| Data e Ora | Cielo e Fenomeni | T °C | DP °C | Um. % | Pres. hPa | Vis. km | Vento km/h | |
|---|---|---|---|---|---|---|---|---|
| Oggi h: 04:00 | Foschia | 28 | 26 | 88 | 1002 | 4 | E 14.8 | |
| Oggi h: 03:30 | Foschia | 28 | 26 | 88 | 1002 | 4 | E/SE 14.8 | |
| Oggi h: 03:00 | Foschia | 28 | 26 | 88 | 1002 | 4 | E/SE 14.8 | |
| Oggi h: 02:30 | Foschia | 28 | 26 | 88 | 1003 | 4 | E/SE 16.7 | |
| Oggi h: 02:00 | Foschia | 28 | 26 | 88 | 1003 | 4 | E/SE 14.8 | |
| Oggi h: 01:30 | Foschia | 28 | 26 | 88 | 1003 | 4 | E/SE 11.1 | |
| Oggi h: 01:00 | Foschia | 28 | 26 | 88 | 1003 | 4 | E/SE 11.1 | |
| Oggi h: 00:30 | Foschia | 28 | 26 | 88 | 1003 | 4 | E/SE 11.1 | |
| Oggi h: 00:00 | Foschia | 28 | 26 | 88 | 1003 | 4 | E 14.8 | |
| Ieri h: 23:30 | Foschia | 28 | 26 | 88 | 1003 | 4 | E 13 | |
| Ieri h: 23:00 | Foschia | 28 | 26 | 88 | 1004 | 4 | E/SE 11.1 | |
| Ieri h: 22:30 | Foschia | 29 | 26 | 83 | 1004 | 4 | E/SE 16.7 | |
| Ieri h: 22:00 | Foschia | 29 | 26 | 83 | 1003 | 4 | SE 14.8 | |
| Ieri h: 21:30 | Foschia | 29 | 26 | 83 | 1003 | 4 | SE 14.8 | |
| Ieri h: 21:00 | Foschia | 29 | 26 | 83 | 1003 | 4 | SE 16.7 | |
| Ieri h: 20:30 | Foschia | 29 | 26 | 83 | 1003 | 4 | SE 16.7 | |
| Ieri h: 20:00 | Foschia | 29 | 26 | 83 | 1002 | 4 | SE 13 | |
| Ieri h: 19:30 | Foschia | 29 | 26 | 83 | 1002 | 4 | E/SE 13 | |
| Ieri h: 19:00 | Foschia | 29 | 26 | 83 | 1001 | 4 | E/SE 13 | |
| Ieri h: 18:30 | Foschia | 30 | 26 | 79 | 1001 | 5 | SE 14.8 | |
| Ieri h: 18:00 | Foschia | 30 | 26 | 79 | 1001 | 5 | SE 11.1 | |
| Ieri h: 17:30 | Foschia | 31 | 26 | 74 | 1000 | 5 | S/SE 11.1 | |
| Ieri h: 17:00 | Foschia | 31 | 26 | 74 | 1000 | 4 | SE 18.5 | |
| Ieri h: 16:30 | Foschia | 31 | 26 | 74 | 1000 | 4 | SE 20.3 | |
| Ieri h: 16:00 | Foschia | 31 | 26 | 74 | 1000 | 4 | SE 14.8 | |
| Ieri h: 15:30 | Foschia | 31 | 26 | 74 | 1000 | 4 | SE 18.5 | |
| Ieri h: 15:00 | Foschia | 31 | 26 | 74 | 1000 | 4 | SE 18.5 | |
| Ieri h: 14:30 | Pioviggine | 31 | 26 | 74 | 1000 | 4 | SE 18.5 | |
| Ieri h: 14:00 | Foschia | 31 | 26 | 74 | 1000 | 4 | SE 16.7 | |
| Ieri h: 13:30 | Foschia | 31 | 26 | 74 | 1001 | 4 | SE 22.2 | |
| Ieri h: 13:00 | Foschia | 32 | 26 | 70 | 1001 | 4 | SE 22.2 | |
| Ieri h: 12:30 | Foschia | 32 | 26 | 70 | 1002 | 4 | SE 18.5 | |
| Ieri h: 12:00 | Foschia | 31 | 26 | 74 | 1002 | 4 | E/SE 20.3 | |
| Ieri h: 11:30 | Foschia | 31 | 26 | 74 | 1002 | 4 | E/SE 18.5 | |
| Ieri h: 11:00 | Foschia | 30 | 25 | 74 | 1003 | 4 | E/SE 20.3 | |
| Ieri h: 10:30 | Foschia | 30 | 26 | 79 | 1003 | 4 | E/SE 20.3 | |
| Ieri h: 10:00 | Foschia | 29 | 25 | 79 | 1003 | 4 | E/SE 20.3 | |
| Ieri h: 09:30 | Foschia | 29 | 26 | 83 | 1003 | 4 | E/SE 18.5 | |
| Ieri h: 09:00 | Foschia | 28 | 25 | 83 | 1003 | 4 | E/SE 20.3 | |
| Ieri h: 08:30 | Foschia | 28 | 25 | 83 | 1003 | 4 | E 20.3 | |
| Ieri h: 08:00 | Foschia | 28 | 25 | 83 | 1003 | 4 | E 18.5 | |
| Ieri h: 07:30 | Foschia | 27 | 25 | 88 | 1002 | 4 | E 20.3 | |
| Ieri h: 07:00 | Foschia | 27 | 25 | 88 | 1002 | 4 | E 18.5 | |
| Ieri h: 06:30 | Foschia | 27 | 25 | 88 | 1002 | 4 | E 14.8 | |
| Ieri h: 06:00 | Foschia | 27 | 26 | 94 | 1002 | 4 | E 14.8 | |
| Ieri h: 05:30 | Pioviggine | 27 | 26 | 94 | 1001 | 4 | E/SE 13 | |
| Ieri h: 05:00 | Pioviggine | 27 | 26 | 94 | 1001 | 4 | E/SE 14.8 | |



